Rock Hill, SC

9:27 AM EDT on March 27, 2017 (GMT -0400)
Rock Hill-York County-Bryant

Weather History for KUZA - December, 2012

Change the Weather History Date:

Wednesday, December 19, 2012

  Actual Average Record
Temperature  
Mean Temperature 50 °F -  
Max Temperature 66 °F 53 °F 76 °F (1984)
Min Temperature 35 °F 33 °F 13 °F (1975)
Degree Days  
Heating Degree Days 14    
Moisture  
Dew Point 36 °F    
Average Humidity 64    
Maximum Humidity 86    
Minimum Humidity 32    
Precipitation  
Precipitation 0.00 in - - ()
Sea Level Pressure  
Sea Level Pressure 30.04 in    
Wind  
Wind Speed 5 mph (WSW)    
Max Wind Speed 9 mph    
Max Gust Speed -    
Visibility 10 miles    
Events      
Averages and records for this station are not official NWS values.
T = Trace of Precipitation, MM = Missing Value Source: NWS Daily Summary

Daily Weather History Graph

Daily Weather History Graph

Search for Another Location

Airport or City:

Trip Planner

Search our weather history database for the weather conditions in past years. The results will help you decide how hot, cold, wet, or windy it might be!

Date:

Astronomy

Dec. 19, 2012 Rise Set
Actual Time 7:27 AM EST 5:15 PM EST
Civil Twilight 6:59 AM EST 5:43 PM EST
Nautical Twilight 6:27 AM EST 6:15 PM EST
Astronomical Twilight 5:56 AM EST 6:46 PM EST
Moon 11:50 AM EST (12/19) No Moon Set
Length of Visible Light 10h 44m
Length of Day
9h 48m
Waxing Crescent, 45% of the Moon is Illuminated
Dec 19
Waxing Crescent
Dec 20
First Quarter
Dec 28
Full
Jan 4
Last Quarter
Jan 11
New

Hourly Weather History & Observations

Time (EST) Temp. Windchill Dew Point Humidity Pressure Visibility Wind Dir Wind Speed Gust Speed Precip Events Conditions
12:54 AM 36.0 °F 30.3 °F 32.0 °F 86% 29.95 in 10.0 mi SW 6.9 mph - N/A   Clear
1:54 AM 42.1 °F 37.1 °F 30.9 °F 65% 29.96 in 10.0 mi SW 8.1 mph - N/A   Clear
2:54 AM 41.0 °F 35.2 °F 30.9 °F 67% 29.96 in 10.0 mi SW 9.2 mph - N/A   Clear
3:54 AM 42.1 °F 37.1 °F 30.9 °F 65% 29.96 in 10.0 mi SW 8.1 mph - N/A   Clear
4:54 AM 42.1 °F 39.2 °F 30.9 °F 65% 29.97 in 10.0 mi WSW 4.6 mph - N/A   Clear
5:54 AM 35.1 °F 30.1 °F 30.0 °F 82% 29.99 in 10.0 mi SW 5.8 mph - N/A   Clear
6:54 AM 35.1 °F 30.1 °F 30.9 °F 85% 30.01 in 10.0 mi WSW 5.8 mph - N/A   Clear
7:54 AM 35.1 °F 32.2 °F 30.9 °F 85% 30.05 in 10.0 mi WSW 3.5 mph - N/A   Clear
8:54 AM 46.9 °F - 30.9 °F 54% 30.06 in 10.0 mi West 6.9 mph - N/A   Clear
10:54 AM 57.9 °F - 34.0 °F 41% 30.08 in 10.0 mi Variable 3.5 mph - N/A   Clear
11:54 AM 62.1 °F - 36.0 °F 38% 30.05 in 10.0 mi WSW 6.9 mph - N/A   Clear
12:54 PM 64.0 °F - 37.0 °F 37% 30.04 in 10.0 mi West 8.1 mph - N/A   Clear
1:54 PM 66.0 °F - 37.0 °F 34% 30.01 in 10.0 mi Variable 5.8 mph - N/A   Clear
2:54 PM 66.0 °F - 35.1 °F 32% 30.01 in 10.0 mi SW 5.8 mph - N/A   Clear
3:54 PM 64.0 °F - 37.0 °F 37% 30.03 in 10.0 mi WSW 6.9 mph - N/A   Clear
4:54 PM 59.0 °F - 39.9 °F 49% 30.04 in 10.0 mi Calm Calm - N/A   Clear
5:54 PM 53.1 °F - 39.9 °F 61% 30.07 in 10.0 mi Calm Calm - N/A   Clear
6:54 PM 48.9 °F - 41.0 °F 74% 30.09 in 10.0 mi Calm Calm - N/A   Clear
7:54 PM 46.9 °F - 41.0 °F 80% 30.10 in 10.0 mi Calm Calm - N/A   Clear
8:54 PM 46.9 °F - 41.0 °F 80% 30.09 in 10.0 mi Calm Calm - N/A   Clear
9:54 PM 45.0 °F - 39.9 °F 82% 30.10 in 10.0 mi Calm Calm - N/A   Clear
10:54 PM 45.0 °F - 41.0 °F 86% 30.12 in 10.0 mi Calm Calm - N/A   Clear
11:54 PM 44.1 °F - 39.9 °F 85% 30.11 in 10.0 mi Calm Calm - N/A   Clear